#timestamp,LO_Frequency,Hit,StdDev 
1505977215.1,286046998.4,P
1505977235.8,286046998.4,P
1505977255.7,286046996.5,P
1505977275.5,286047001.1,N
1505977295.4,286047000.6,N
1505977315.2,286047001.1,N
1505977335.0,286046998.3,N
1505977335.9,286046998.3,N
1505977355.8,286047001.0,N
1505977375.6,286046998.5,N
1505977395.5,286046998.4,N
1505977415.3,286046996.9,N
1505977435.1,286046996.9,N
1505977455.9,286046996.6,N
1505977475.7,286046998.9,N
1505977495.5,286046999.2,N
1505977515.4,286046999.4,N
1505977535.2,286046998.7,N
1505977555.1,286046999.0,N
1505977556.0,286046999.0,N
1505977575.8,286046998.5,N
1505977595.6,286046998.5,N
1505977615.5,286046998.6,N
1505977635.3,286046998.7,N
1505977655.2,286046998.4,N
1505977675.9,286046999.0,N
1505977695.7,286046998.8,N
1505977715.6,286046998.3,N
1505977735.4,286046999.1,N
1505977755.2,286046998.7,N
1505977775.1,286046998.6,N
1505977776.0,286046998.6,N
1505977795.8,286047000.6,N
1505977815.7,286047001.0,N
1505977835.5,286046998.4,N
1505977855.3,286047001.0,N
1505977875.2,286047001.1,N
1505977895.0,286047001.2,N
1505977895.9,286047001.2,N
1505977915.8,286047000.9,N
1505977935.6,286047001.2,N
1505977955.5,286046998.4,N
1505977975.3,286046998.6,N
1505977995.1,286047001.0,N
1505978015.9,286046998.6,N
1505978035.7,286046999.9,N
1505978055.5,286047000.3,N
1505978075.4,286047000.8,N
1505978095.2,286046998.3,N
1505978115.1,286047001.1,N
1505978116.0,286047001.1,N
1505978135.8,286047001.1,N
1505978155.6,286047001.1,N
1505978175.5,286047000.7,N
1505978195.3,286047001.1,N
1505978215.2,286047000.7,N
1505978235.9,286047000.1,N
1505978255.7,286047000.3,N
1505978275.6,286047001.9,N
1505978295.4,286047002.6,N
1505978315.2,286047001.0,N
1505978335.1,286047002.4,N
1505978336.0,286047002.4,N
1505978355.8,286047001.9,N
1505978375.7,286047004.4,Y
1505978395.5,286047001.6,P
1505978415.3,286046999.9,N
1505978435.2,286047000.6,N
1505978455.0,286047000.5,N
1505978455.9,286047000.5,N
1505978475.8,286047002.4,Y
1505978495.6,286047000.4,P
1505978515.4,286047000.3,N
1505978535.3,286047000.5,P
1505978555.1,286047001.2,Y
1505978575.9,286047000.7,P
1505978595.7,286047000.4,P
1505978615.5,286046998.6,P
1505978635.4,286047000.7,N
1505978655.2,286046999.9,N
1505978675.1,286046998.4,N
1505978676.0,286046998.4,N
1505978695.8,286047000.6,N
1505978715.6,286047000.6,N
1505978735.5,286047002.8,N
1505978755.3,286047000.3,N
1505978775.1,286047000.3,N
1505978795.9,286047001.9,N
1505978815.7,286046999.8,N
1505978835.6,286047001.6,N
1505978855.4,286047002.0,N
1505978875.2,286047002.4,N
1505978895.1,286047000.0,N
1505978896.0,286047000.0,N
1505978915.8,286047002.3,N
1505978935.7,286047002.1,N
1505978955.5,286047001.7,N
1505978975.3,286047002.2,N
1505978995.2,286047004.3,Y
1505979015.0,286047002.3,P
1505979015.9,286047002.3,N
1505979035.8,286047000.7,N
1505979055.6,286047000.9,N
1505979075.4,286047001.0,N
1505979095.3,286046998.6,N
1505979115.1,286047001.1,N
1505979135.8,286047000.9,N
1505979155.7,286046999.9,N
1505979175.5,286047001.2,N
1505979195.4,286047001.0,N
1505979215.2,286047001.0,N
1505979235.0,286046999.9,N
1505979235.9,286046999.9,N
1505979255.8,286047002.2,N
1505979275.6,286047002.7,N
1505979295.4,286047000.2,N
1505979315.3,286047000.9,N
1505979335.1,286047000.8,N
1505979355.9,286047000.4,N
1505979375.7,286047000.3,N
1505979395.5,286047000.5,N
1505979415.4,286047002.7,N
1505979435.2,286046998.1,N
1505979455.0,286047002.4,N
1505979455.9,286047002.4,N
1505979475.8,286046999.7,N
1505979495.6,286047000.2,N
1505979515.5,286046999.9,N
1505979535.3,286047000.0,N
1505979555.1,286047001.8,N
1505979575.9,286047002.1,N
1505979595.7,286047001.6,N
1505979615.6,286047001.7,N
1505979635.4,286047002.1,N
1505979655.2,286047004.4,Y
1505979675.1,286047002.3,P
1505979676.0,286047002.3,P
1505979695.8,286047002.2,P
1505979715.6,286047002.6,Y
1505979735.5,286047000.0,P
1505979755.3,286046998.1,N
1505979775.2,286047000.8,N
1505979795.9,286047000.8,N
1505979815.7,286047000.6,N
1505979835.6,286046998.1,N
1505979855.4,286047000.5,N
1505979875.3,286046998.4,N
1505979895.1,286046999.2,N
1505979896.0,286046999.2,N
1505979915.8,286046998.2,N
1505979935.7,286047001.1,N
1505979955.5,286047001.1,N
1505979975.3,286046998.1,N
1505979995.2,286046998.5,N
1505980015.0,286047001.0,N
1505980015.9,286047001.0,N
1505980035.8,286047004.4,Y
1505980055.6,286047002.6,P
1505980075.4,286047002.4,N
1505980095.3,286047002.5,N
1505980115.1,286047001.0,N
1505980135.9,286046996.5,Y
1505980155.7,286046997.8,P
1505980175.5,286046997.8,N
1505980195.4,286046997.6,N
1505980215.2,286046997.8,N
1505980235.0,286046999.3,N
1505980236.0,286046999.3,N
1505980255.8,286046996.9,N
1505980275.6,286046996.7,N
1505980295.5,286046997.4,N
1505980315.3,286046997.7,N
1505980335.1,286046995.4,Y
1505980355.9,286046998.7,P
1505980375.7,286046998.4,P
1505980395.6,286046998.5,P
1505980415.4,286047001.2,Y
1505980435.2,286046999.7,P
1505980455.1,286047002.7,P
1505980456.0,286047002.7,N
1505980475.8,286047001.8,N
1505980495.7,286047003.9,N
1505980515.5,286047003.1,N
1505980535.3,286047001.3,N
1505980555.2,286047004.2,N
1505980575.0,286047003.9,N
1505980575.9,286047003.9,N
1505980595.7,286047004.0,N
1505980615.6,286047004.3,N
1505980635.4,286047001.4,N
1505980655.3,286047003.9,N
1505980675.1,286047002.3,N
1505980676.0,286047002.3,N
1505980695.8,286047003.5,N
1505980715.7,286047003.1,N
1505980735.5,286047004.2,N
1505980755.3,286047003.6,N
1505980775.2,286047003.3,N
1505980795.0,286047003.8,N
1505980795.9,286047003.8,N
